Other Public Products
Issued by NWS Grand Forks, ND

Home | Current Version | Previous Version | Graphics & Text | Print | Product List | Glossary On
Versions: 1 2 3 4 5 6 7 8 9 10 11 12 13 14 15 16 17 18 19 20 21 22 23 24 25 26 27 28 29 30 31 32 33 34 35 36 37 38 39 40 41 42 43 44 45 46 47 48 49 50
000
FPUS83 KFGF 230910
OPUFGF
PRAIRIE TO PINES WEATHER ROUNDUP
NATIONAL WEATHER SERVICE EASTERN NORTH DAKOTA/GRAND FORKS ND
300 AM CST TUE JAN 23 2018

 **SATELLITE DATA USED TO AUGMENT SKY COVER AT AUTOMATED STATIONS**
 *****  WEATHER ACROSS EASTERN NORTH DAKOTA  *****

CITY           SKY/WX    TMP DP  RH WIND       PRES   REMARKS
GRAND FORKS    CLOUDY    22  16  78 NE5       30.07S WCI  16
GRND FORKS AFB CLOUDY    22  16  77 CALM      30.06S
GRND FORKS NWS   N/A     21 N/A N/A N3          N/A
BUXTON           N/A     20  20  99 NW2         N/A
DEVILS LAKE    CLOUDY    18  17  96 S9        30.01F WCI   7
FARGO          CLOUDY    21  18  88 N9        30.06R WCI  11
WAHPETON ARPT  CLOUDY    23  18  80 NW9       30.05R WCI  13
$$

 *****  WEATHER ACROSS CENTRAL AND WESTERN NORTH DAKOTA  *****

CITY           SKY/WX    TMP DP  RH WIND       PRES   REMARKS
JAMESTOWN      CLOUDY    19  19 100 S3        30.02F FOG
BISMARCK       CLOUDY    18  16  92 SW5       30.02F FOG     WCI  11
MINOT          FAIR      13   9  84 CALM      29.95S
MINOT AFB      FAIR      10   7  87 S5        29.94S WCI   2
GARRISON         N/A     12   9  87 CALM      29.97R
WILLISTON      FAIR      21  15  78 W10       29.99S WCI  10
DICKINSON      FAIR      26  20  77 W12       29.97R WCI  16
HETTINGER      MOCLDY    26  19  74 W13       30.02S WCI  15
$$

 *****  OTHER OBSERVATIONS NORTHEAST NORTH DAKOTA  *****

CITY           SKY/WX    TMP DP  RH WIND       PRES   REMARKS
WALHALLA       FAIR      21  21 100 S5        30.04S WCI  15
LANGDON        CLOUDY    19  19 100 S10       29.99S FOG     WCI   8
CAVALIER         N/A     23  18  80 S6        30.05S WCI  16
GRAFTON        CLOUDY    21  18  86 S3        30.09S
CANDO          CLOUDY    19  19 100 S7        30.02R FOG     WCI  10
FORT TOTTEN      N/A     18  17  96 S6        29.95S WCI  10
ROLLA          FOG       19  19 100 SW10      29.96S VSB 1   WCI   8
RUGBY            N/A     19  19 100 S7        29.98S FOG     WCI  10
 ***** THE ABOVE OBSERVATIONS ARE NON NWS ARE NOT QUALITY
        CONTROLLED AND MAY MIS-REPORT RAIN FOR SNOW...
$$

 *****  OTHER OBSERVATIONS SOUTHEAST NORTH DAKOTA *****

CITY           SKY/WX    TMP DP  RH WIND       PRES   REMARKS
COOPERSTOWN    CLOUDY    19  19 100 CALM      30.04S
VALLEY CITY    CLOUDY    19  19 100 CALM      30.06S
OAKES            N/A     19  19 100 NW7       30.06R WCI  10
GWINNER          N/A     21  19  93 NW10      30.06R WCI  10
SHEYENNE NWR     N/A     22  19  89 N7        29.95S WCI  13
BUFFALO        NOT AVBL
WYNDMERE       NOT AVBL
 ***** THE ABOVE OBSERVATIONS ARE NON NWS ARE NOT QUALITY
       CONTROLLED AND MAY MIS-REPORT RAIN FOR SNOW...
$$

  *****  WEATHER ACROSS NORTHERN MINNESOTA  *****

CITY           SKY/WX    TMP DP  RH WIND       PRES   REMARKS
FLAG ISLAND    CLOUDY    14   9  79 NE6       30.06R WCI   5
WARROAD        CLOUDY    18  12  79 N3        30.06S
ROSEAU         CLOUDY    19  14  79 NE3       30.06R
HALLOCK        CLOUDY    21  16  79 CALM      30.07S
THF RVR FALLS  CLOUDY    18  14  84 NE7       30.06  WCI   9
HALSTAD        NOT AVBL
FOSSTON        CLOUDY    18  14  86 N7        30.04R WCI   8
BAUDETTE       CLOUDY    14  10  84 N7        30.04R WCI   4
WASKISH        CLOUDY    18  12  79 N7        30.02R WCI   8
CROOKSTON      CLOUDY    19  16  86 N6        30.08S WCI  11
$$
  *****  WEATHER ACROSS CENTRAL AND WEST MINNESOTA  *****

CITY           SKY/WX    TMP DP  RH WIND       PRES   REMARKS
BEMIDJI        CLOUDY    19  15  85 N7        30.00R WCI   9
PARK RAPIDS    FAIR      19  14  81 N9        29.97R WCI   8
WADENA         CLOUDY    19  16  86 N10G16    29.98R WCI   8
DETROIT LAKES  CLOUDY    21  18  86 N5        30.01R WCI  15
MOORHEAD       CLOUDY    19  18  93 N8        30.06R WCI   9
FERGUS FALLS   CLOUDY    21  16  79 N9        30.02R WCI  11
ELBOW LAKE     CLOUDY    22  17  81 N12       30.01R WCI  11
MORRIS MN      CLOUDY    25  18  74 N15       30.00R WCI  12
STAPLES        FAIR      16  12  86 N8        29.97R WCI   5
WHEATON        CLOUDY    23  18  80 NW13      30.06R WCI  11
$$
  *****  WEATHER ELSEWHERE ACROSS MINNESOTA  *****

CITY           SKY/WX    TMP DP  RH WIND       PRES   REMARKS
DULUTH         MOCLDY    11   6  81 N9        29.88R WCI  -2
INTRNTL FALLS  FAIR       8   3  80 N8        30.02R WCI  -4
ELY            NOT AVBL
CLOQUET        CLOUDY    12   9  85 N13       29.90R WCI  -3
BRAINERD       FAIR      18  13  80 N10       29.95R WCI   6
HIBBING        FAIR       7   3  84 N14       29.93S WCI -10
ALEXANDRIA     CLOUDY    22  17  81 N12       29.97R WCI  10
SAINT CLOUD    FAIR      20  15  81 N12       29.92R WCI   8
MINNEAPOLIS    FAIR      22  16  78 N15       29.88R HAZE    WCI   9
$$

  *****  WEATHER ACROSS SOUTH DAKOTA  *****

CITY           SKY/WX    TMP DP  RH WIND       PRES   REMARKS
SIOUX FALLS    CLOUDY    22  20  92 NW20      30.00R WCI   7
BROOKINGS      CLOUDY    20  19  96 N14       30.00R WCI   7
WATERTOWN      CLOUDY    19  18  95 N14       30.00R WCI   6
HURON          CLOUDY    19  19 100 N14       30.07R FOG     WCI   6
SISSETON         N/A     22  19  89 NW15      30.03R WCI   9
ABERDEEN       CLOUDY    20  20 100 NW6       30.07R WCI  12
MITCHELL       CLOUDY    21  20  96 NW17      30.08R WCI   7
PIERRE         FOG       21  21 100 W5        30.06R VSB 1/2 WCI  15
MOBRIDGE       FOG       19  17  92 S7        30.02R VSB 1   WCI  10
RAPID CITY     CLOUDY    32  26  78 N13       30.08R WCI  22
$$

  *****  SOME WEATHER IN NEARBY STATES *****

CITY           SKY/WX    TMP DP  RH WIND       PRES   REMARKS
GLASGOW MT     FAIR      14  10  84 W7        30.03R WCI   4
GREAT FALLS MT FAIR      26  18  71 SW14      30.08R WCI  14
CHEYENNE WY    FAIR      24  13  62 NW13      30.09R WCI  12
SCOTTSBLUFF NE MOCLDY    26  19  74 NW7       30.13R WCI  18
OMAHA NE       CLOUDY    28  24  85 NW17      29.98R WCI  16
DES MOINES IA  CLOUDY    30  24  78 N16G26    29.83R WCI  19
DAVENPORT IA   MIX PCPN  35  32  88 NW10      29.64R
CHICAGO IL     LGT RAIN  36  33  89 W12       29.51R
EAU CLAIRE WI  CLOUDY    24  20  84 N10       29.76R WCI  14
LA CROSSE WI   LGT SNOW  27  23  85 N17G28    29.73R FOG     WCI  14
$$

  *****  SOME NATIONAL WEATHER *****

CITY           SKY/WX    TMP DP  RH WIND       PRES   REMARKS
LA GUARDIA NY  FOG       37  36  96 NE8       29.92F VSB 1/8
RALEIGH NC     LGT RAIN  61  60  97 S20G28    29.81F
ATLANTA GA     MOCLDY    57  48  72 W20G28    29.88R
NEW ORLEANS LA FAIR      52  34  50 NW8       30.09S
OKLAHOMA CITY  FAIR      33  17  51 NW15      30.13R WCI  23
ALBUQUERQUE NM FAIR      22   8  55 CALM      30.23S
SALT LAKE CITY MOCLDY    30  25  81 SE6       30.32F WCI  24
LOS ANGELES CA FAIR      53  36  52 CALM      30.16F
BOISE ID       FAIR      30  26  85 SE8       30.31F WCI  22
SEATTLE WA     CLOUDY    41  35  79 SE8       30.23F
$$

*** WEATHER ACROSS MANITOBA...SASKATCHEWAN AND ONTARIO ***
                ***ONTARIO***

CITY           SKY/WX    TMP DP  RH WIND       PRES   REMARKS
GERALDTON      FLURRIES  -6 -13  71 NE12G18   30.00F WCI -24
THUNDER BAY    CLOUDY     9   0  66 N6        29.94S WCI  -1
SIOUX LOOKOUT  CLEAR     -6  -9  84 VRB2      30.07R
TORONTO        LGT RAIN  36  34  93 NW12      29.52F
BIG TROUT LK   NOT AVBL
PICKLE LAKE    NOT AVBL
DRYDEN         CLEAR      1  -2  85 NE7       30.05R WCI -11
KENORA         FLURRIES  10   7  85 NE7       30.04S WCI   0
$$
                *** MANITOBA***

CITY           SKY/WX    TMP DP  RH WIND       PRES   REMARKS
BRANDON        CLOUDY    23  19  86 SW9       29.96S WCI  13
DAUPHIN        CLOUDY    25  23  93 SW7       29.95S WCI  17
ISLAND LAKE    CLEAR    -11 -15  84 E6        30.20S WCI -25
PILOT MOUND      N/A     19  18  93 S10         N/A  WCI   8
THE PAS        LGT SNOW   5   0  78 NE5       30.00S WCI  -4
THOMPSON       PTCLDY   -18 -24  76 NE6       30.24S WCI -33
WINNIPEG       FLURRIES  21  16  79 S8        30.05F WCI  12
LYNN LAKE      CLOUDY   -15 -18  84 E6        30.15S WCI -29
CHURCHILL      CLEAR    -13 -17  84 E7        30.50R WCI -29
GILLAM         CLEAR    -22 -27  76 NE5       30.36S WCI -36
$$
                ***SASKATCHEWAN***

CITY           SKY/WX    TMP DP  RH WIND       PRES   REMARKS
ESTEVAN        PTCLDY    16  12  86 W12       29.94R WCI   3
KINDERSLEY     CLEAR     14  10  85 SW8       29.96S WCI   3
LLOYDMINSTER   FOG       18  18 100 W7        29.94S VSB 3/8 WCI   8
PRINCE ALBERT  LGT SNOW  12  10  92 SW3       29.97R FOG
REGINA         CLOUDY    18  16  93 NW17      29.96R FOG     WCI   2
YORKTON        MOCLDY    14  12  92 NW8       29.91R WC



USA.gov is the U.S. government's official web portal to all federal, state and local government web resources and services.